TimeCDT,TemperatureF,Dew PointF,Humidity,Sea Level PressureIn,VisibilityMPH,Wind Direction,Wind SpeedMPH,Gust SpeedMPH,PrecipitationIn,Events,Conditions,WindDirDegrees,DateUTC
12:15 AM,30.2,28.4,93,29.82,4.0,NNE,11.5,-,N/A,Snow,Light Snow,30,2013-03-16 05:15:00
12:35 AM,30.2,28.4,93,29.82,7.0,NE,15.0,19.6,N/A,Snow,Light Snow,50,2013-03-16 05:35:00
12:55 AM,30.2,28.4,93,29.83,3.0,NE,15.0,20.7,N/A,Snow,Light Snow,40,2013-03-16 05:55:00
1:35 AM,30.2,26.6,86,29.81,3.0,NE,15.0,18.4,N/A,Snow,Light Snow,50,2013-03-16 06:35:00
1:55 AM,28.4,26.6,93,29.81,4.0,NE,18.4,28.8,N/A,Snow,Light Snow,40,2013-03-16 06:55:00
2:15 AM,28.4,26.6,93,29.82,5.0,NE,10.4,20.7,N/A,Snow,Light Snow,50,2013-03-16 07:15:00
2:35 AM,28.4,26.6,93,29.81,7.0,NE,13.8,20.7,N/A,Snow,Light Snow,50,2013-03-16 07:35:00
2:55 AM,28.4,26.6,93,29.81,10.0,NE,12.7,18.4,N/A,,Overcast,50,2013-03-16 07:55:00
3:15 AM,28.4,26.6,93,29.81,7.0,NE,10.4,16.1,N/A,Snow,Light Snow,50,2013-03-16 08:15:00
3:35 AM,28.4,26.6,93,29.81,10.0,NE,13.8,-,N/A,,Overcast,40,2013-03-16 08:35:00
3:55 AM,28.4,26.6,93,29.81,10.0,NE,12.7,20.7,N/A,,Overcast,50,2013-03-16 08:55:00
4:15 AM,28.4,24.8,86,29.80,10.0,NE,11.5,18.4,N/A,,Overcast,50,2013-03-16 09:15:00
4:35 AM,28.4,24.8,86,29.80,10.0,NE,13.8,18.4,N/A,,Overcast,50,2013-03-16 09:35:00
4:55 AM,28.4,24.8,86,29.80,10.0,NE,8.1,18.4,N/A,,Overcast,50,2013-03-16 09:55:00
5:15 AM,28.4,26.6,93,29.81,10.0,NNE,10.4,-,N/A,,Overcast,30,2013-03-16 10:15:00
5:35 AM,28.4,26.6,93,29.82,7.0,NNE,11.5,16.1,N/A,,Overcast,30,2013-03-16 10:35:00
5:55 AM,28.4,26.6,93,29.83,7.0,NNE,11.5,-,N/A,,Overcast,30,2013-03-16 10:55:00
6:15 AM,28.4,24.8,86,29.83,10.0,NNE,11.5,17.3,N/A,,Overcast,30,2013-03-16 11:15:00
6:35 AM,28.4,26.6,93,29.84,3.0,NNE,10.4,19.6,N/A,Snow,Light Snow,20,2013-03-16 11:35:00
6:45 AM,26.6,24.8,93,29.84,4.0,NNE,11.5,19.6,N/A,Snow,Light Snow,20,2013-03-16 11:45:00
6:55 AM,28.4,26.6,93,29.85,4.0,NNE,10.4,-,N/A,,Overcast,20,2013-03-16 11:55:00
7:45 AM,26.6,24.8,93,29.87,4.0,NNE,11.5,18.4,N/A,,Overcast,20,2013-03-16 12:45:00
8:45 AM,24.8,21.2,86,29.90,5.0,North,11.5,17.3,N/A,,Overcast,10,2013-03-16 13:45:00
9:45 AM,24.8,21.2,86,29.93,10.0,North,11.5,18.4,N/A,,Overcast,350,2013-03-16 14:45:00
10:45 AM,24.8,19.4,80,29.97,10.0,North,11.5,18.4,N/A,,Overcast,350,2013-03-16 15:45:00
11:45 AM,24.8,21.2,86,30.00,10.0,North,10.4,-,N/A,,Overcast,360,2013-03-16 16:45:00
12:45 PM,26.6,21.2,80,30.01,10.0,NNW,11.5,-,N/A,,Overcast,330,2013-03-16 17:45:00
1:45 PM,30.2,21.2,69,30.01,10.0,North,8.1,-,N/A,,Mostly Cloudy,350,2013-03-16 18:45:00
2:45 PM,30.2,19.4,64,30.00,10.0,NNW,6.9,-,N/A,,Mostly Cloudy,330,2013-03-16 19:45:00
3:45 PM,30.2,19.4,64,30.01,10.0,NNW,9.2,-,N/A,,Mostly Cloudy,330,2013-03-16 20:45:00
5:45 PM,28.4,17.6,64,30.02,10.0,NW,9.2,-,N/A,,Clear,310,2013-03-16 22:45:00
6:45 PM,26.6,17.6,69,30.04,10.0,WNW,5.8,-,N/A,,Clear,290,2013-03-16 23:45:00
7:45 PM,26.6,17.6,69,30.05,10.0,West,5.8,-,N/A,,Clear,270,2013-03-17 00:45:00
8:45 PM,26.6,17.6,69,30.07,10.0,West,5.8,-,N/A,,Clear,260,2013-03-17 01:45:00
9:15 PM,26.6,19.4,74,30.08,10.0,West,4.6,-,N/A,,Mostly Cloudy,260,2013-03-17 02:15:00
9:35 PM,28.4,19.4,69,30.09,10.0,West,4.6,-,N/A,,Mostly Cloudy,270,2013-03-17 02:35:00
9:55 PM,28.4,19.4,69,30.09,10.0,West,3.5,-,N/A,,Overcast,260,2013-03-17 02:55:00
10:15 PM,28.4,19.4,69,30.09,10.0,West,3.5,-,N/A,,Overcast,270,2013-03-17 03:15:00
10:35 PM,28.4,19.4,69,30.10,10.0,West,5.8,-,N/A,,Overcast,280,2013-03-17 03:35:00
10:55 PM,28.4,19.4,69,30.10,10.0,NW,9.2,-,N/A,,Overcast,310,2013-03-17 03:55:00
11:15 PM,28.4,17.6,64,30.11,10.0,NW,12.7,-,N/A,,Overcast,310,2013-03-17 04:15:00
11:35 PM,28.4,17.6,64,30.11,10.0,WNW,11.5,-,N/A,,Overcast,300,2013-03-17 04:35:00
11:55 PM,28.4,17.6,64,30.12,10.0,NW,11.5,17.3,N/A,,Overcast,320,2013-03-17 04:55:00